Find Starlink 30094

NORAD ID: 56305 Int'l Des: 2023-056 Owner: SPXS Country: US Constellation: starlink operational
LEOCIRCULAR

当前视图

正在加载3D地球...

About Starlink 30094

Starlink 30094 (NORAD 56305) is a starlink constellation satellite (v2 mini) launched Apr 19, 2023 by SPXS of US. It operates in LEO, CIRCULAR orbit with a mass of 730.00 kg.

关于 Starlink 30094

正在加载描述...

即将过境

Passes for default location (London). Set your location on the main map for personalized predictions.

高度历史

Loading altitude history...

两行轨道根数

1 56305U 23056V 26170.83765823 -.00002522 00000-0 -82140-4 0 9995
2 56305 43.0034 351.8213 0001888 259.7164 100.3474 15.27580432175725
Epoch: Jun 19, 2026 • Age: 14 hours

当前状态

高度 485.0 km
速度 7.63 km/s
星下点 31.55°N, 35.97°W
发射日期 Apr 19, 2023
运行时间 3.1 years
类型 internet

技术详情

分类 Payload
质量 730.00 kg
干质量 700.00 kg
总质量 730.00 kg
长度 0.30 m
直径 4.10 m
跨度 29.00 m
形状 Box + pan
制造商 SPXS
平台类型 Starlink V2M
阶段状态 In Orbit
所有者/国家 SPXS/US

Most Searched